When you browse on this site, cookies collect data to enhance your experience and personalize the content and advertising you see.
Visit our Privacy Policy to learn more. By continuing to use the site, you agree to this use of cookies and data.
  • In Romania
  • List of Countries
  • For 7 days
  • Water Temperature
  • Weather Map
  • Weather Widgets
  • user-avatar
    Login

    Hourly Weather Kitzbuhel

    Today, 19 September, Thursday

    Time Temperature Precipitation Wind Pressure Humidity
    00:00 +6°C° 0 mm 0 mps 680 mmHg 90%
    01:00 +6°C° 0 mm 0 mps 680 mmHg 92%
    02:00 +5°C° 0 mm 0 mps 680 mmHg 92%
    03:00 +5°C° 0 mm 0 mps 680 mmHg 92%
    04:00 +4°C° 0 mm 0 mps 680 mmHg 93%
    05:00 +5°C° 0 mm 0 mps 680 mmHg 90%
    06:00 +5°C° 0 mm 0 mps 681 mmHg 87%
    07:00 +6°C° 0 mm 0 mps 681 mmHg 84%
    08:00 +8°C° 0 mm 0 mps 681 mmHg 75%
    09:00 +11°C° 0 mm 1 mps 682 mmHg 65%
    10:00 +13°C° 0 mm 1 mps 682 mmHg 56%
    11:00 +14°C° 0 mm 1 mps 682 mmHg 52%
    12:00 +14°C° 0 mm 2 mps 682 mmHg 49%
    13:00 +15°C° 0 mm 2 mps 682 mmHg 45%
    14:00 +15°C° 0 mm 2 mps 682 mmHg 49%
    15:00 +14°C° 0 mm 2 mps 682 mmHg 52%
    16:00 +14°C° 0 mm 2 mps 682 mmHg 55%
    17:00 +10°C° 0 mm 2 mps 681 mmHg 68%
    18:00 +9°C° 0 mm 1 mps 681 mmHg 80%
    19:00 +5°C° 0 mm 0 mps 681 mmHg 92%
    20:00 +5°C° 0 mm 0 mps 681 mmHg 92%
    21:00 +4°C° 0 mm 0 mps 682 mmHg 93%
    22:00 +4°C° 0 mm 0 mps 682 mmHg 93%
    23:00 +4°C° 0 mm 0 mps 682 mmHg 92%

    Tomorrow, 20 September, Friday

    Time Temperature Precipitation Wind Pressure Humidity
    00:00 +5°C° 0 mm 1 mps 682 mmHg 91%
    01:00 +4°C° 0 mm 1 mps 682 mmHg 91%
    02:00 +4°C° 0 mm 1 mps 682 mmHg 89%
    03:00 +4°C° 0 mm 1 mps 681 mmHg 88%
    04:00 +4°C° 0 mm 1 mps 681 mmHg 87%
    05:00 +5°C° 0 mm 1 mps 681 mmHg 83%
    06:00 +5°C° 0 mm 0 mps 682 mmHg 79%
    07:00 +6°C° 0 mm 0 mps 682 mmHg 76%
    08:00 +9°C° 0 mm 1 mps 682 mmHg 65%
    09:00 +12°C° 0 mm 1 mps 683 mmHg 54%
    10:00 +15°C° 0 mm 1 mps 683 mmHg 44%
    11:00 +15°C° 0 mm 1 mps 683 mmHg 42%
    12:00 +16°C° 0 mm 1 mps 683 mmHg 40%
    13:00 +17°C° 0 mm 2 mps 682 mmHg 38%
    14:00 +17°C° 0 mm 2 mps 682 mmHg 42%
    15:00 +16°C° 0 mm 2 mps 682 mmHg 46%
    16:00 +16°C° 0 mm 2 mps 682 mmHg 50%
    17:00 +13°C° 0 mm 1 mps 681 mmHg 62%
    18:00 +11°C° 0 mm 1 mps 681 mmHg 74%
    19:00 +7°C° 0 mm 0 mps 680 mmHg 86%
    20:00 +8°C° 0 mm 1 mps 681 mmHg 84%
    21:00 +8°C° 0 mm 1 mps 681 mmHg 83%
    22:00 +8°C° 0 mm 1 mps 681 mmHg 81%
    23:00 +8°C° 0 mm 1 mps 681 mmHg 80%

    Day after tomorrow, 21 September, Saturday

    Time Temperature Precipitation Wind Pressure Humidity
    00:00 +8°C° 0 mm 1 mps 681 mmHg 79%
    01:00 +8°C° 0 mm 1 mps 680 mmHg 78%
    02:00 +7°C° 0 mm 2 mps 680 mmHg 78%
    03:00 +7°C° 0 mm 2 mps 680 mmHg 78%
    04:00 +7°C° 0 mm 2 mps 680 mmHg 78%
    05:00 +8°C° 0 mm 2 mps 680 mmHg 76%
    06:00 +10°C° 0 mm 1 mps 680 mmHg 74%
    07:00 +10°C° 0 mm 1 mps 680 mmHg 72%
    08:00 +14°C° 0 mm 1 mps 680 mmHg 64%
    09:00 +18°C° 0 mm 1 mps 681 mmHg 55%
    10:00 +19°C° 0 mm 0 mps 681 mmHg 47%
    11:00 +22°C° 0 mm 1 mps 681 mmHg 46%
    12:00 +23°C° 0 mm 1 mps 681 mmHg 44%
    13:00 +24°C° 0 mm 1 mps 681 mmHg 43%
    14:00 +23°C° 0 mm 1 mps 680 mmHg 47%
    15:00 +22°C° 0 mm 1 mps 680 mmHg 52%
    16:00 +22°C° 0 mm 1 mps 679 mmHg 56%
    17:00 +19°C° 0 mm 1 mps 679 mmHg 66%
    18:00 +16°C° 0 mm 1 mps 678 mmHg 76%
    19:00 +13°C° 0 mm 2 mps 678 mmHg 86%
    20:00 +13°C° 0 mm 2 mps 678 mmHg 85%
    21:00 +13°C° 0 mm 2 mps 678 mmHg 84%
    22:00 +12°C° 0 mm 3 mps 678 mmHg 83%
    23:00 +11°C° 0 mm 3 mps 677 mmHg 82%

    22 September, Sunday

    Time Temperature Precipitation Wind Pressure Humidity
    00:00 +11°C° 0 mm 3 mps 677 mmHg 81%
    01:00 +11°C° 0 mm 3 mps 677 mmHg 81%
    02:00 +12°C° 0 mm 2 mps 676 mmHg 80%
    03:00 +10°C° 0 mm 2 mps 676 mmHg 79%
    04:00 +10°C° 0 mm 2 mps 676 mmHg 78%
    05:00 +10°C° 0 mm 2 mps 676 mmHg 77%
    06:00 +12°C° 0 mm 2 mps 676 mmHg 76%
    07:00 +12°C° 0 mm 2 mps 676 mmHg 75%
    08:00 +15°C° 0 mm 1 mps 676 mmHg 67%
    09:00 +19°C° 0 mm 1 mps 677 mmHg 60%
    10:00 +19°C° 0 mm 0 mps 677 mmHg 53%
    11:00 +20°C° 0 mm 0 mps 677 mmHg 54%
    12:00 +22°C° 0 mm 1 mps 677 mmHg 54%
    13:00 +22°C° 0 mm 1 mps 676 mmHg 54%
    14:00 +21°C° 0.1 mm 1 mps 676 mmHg 61%
    15:00 +20°C° 0.1 mm 1 mps 675 mmHg 68%
    16:00 +19°C° 0.1 mm 1 mps 675 mmHg 75%
    17:00 +18°C° 0 mm 1 mps 675 mmHg 78%
    18:00 +16°C° 0 mm 1 mps 674 mmHg 80%
    19:00 +14°C° 0 mm 2 mps 674 mmHg 83%
    20:00 +14°C° 0 mm 2 mps 674 mmHg 84%
    21:00 +14°C° 0 mm 2 mps 674 mmHg 85%
    22:00 +13°C° 0 mm 2 mps 674 mmHg 87%
    23:00 +13°C° 0 mm 2 mps 674 mmHg 87%

    23 September, Monday

    Time Temperature Precipitation Wind Pressure Humidity
    00:00 +13°C° 0 mm 2 mps 674 mmHg 87%
    01:00 +13°C° 0 mm 2 mps 674 mmHg 87%
    02:00 +13°C° 0 mm 2 mps 674 mmHg 87%
    03:00 +13°C° 0 mm 1 mps 674 mmHg 88%
    04:00 +13°C° 0 mm 1 mps 674 mmHg 89%
    05:00 +12°C° 0.4 mm 1 mps 674 mmHg 92%
    06:00 +12°C° 0.4 mm 1 mps 674 mmHg 95%
    07:00 +12°C° 0.4 mm 1 mps 674 mmHg 98%
    08:00 +10°C° 2.1 mm 2 mps 675 mmHg 97%
    09:00 +10°C° 2.1 mm 2 mps 675 mmHg 97%
    10:00 +10°C° 2.1 mm 2 mps 675 mmHg 97%
    11:00 +10°C° 1.8 mm 1 mps 675 mmHg 96%
    12:00 +10°C° 1.8 mm 1 mps 675 mmHg 95%
    13:00 +10°C° 1.8 mm 1 mps 675 mmHg 94%
    14:00 +11°C° 0.1 mm 1 mps 675 mmHg 92%
    15:00 +11°C° 0.1 mm 1 mps 675 mmHg 90%
    16:00 +12°C° 0.1 mm 1 mps 675 mmHg 87%
    17:00 +10°C° 0.1 mm 0 mps 675 mmHg 89%
    18:00 +10°C° 0.1 mm 0 mps 675 mmHg 91%
    19:00 +9°C° 0.1 mm 0 mps 675 mmHg 92%
    20:00 +9°C° 0.1 mm 1 mps 675 mmHg 93%
    21:00 +9°C° 0.1 mm 1 mps 676 mmHg 94%
    22:00 +8°C° 0.1 mm 1 mps 676 mmHg 95%
    23:00 +8°C° 0.2 mm 1 mps 676 mmHg 95%

    24 September, Tuesday

    Time Temperature Precipitation Wind Pressure Humidity
    00:00 +8°C° 0.2 mm 1 mps 676 mmHg 95%
    01:00 +8°C° 0.2 mm 1 mps 676 mmHg 95%
    02:00 +8°C° 0.2 mm 1 mps 676 mmHg 95%
    03:00 +7°C° 0.2 mm 1 mps 676 mmHg 95%
    04:00 +7°C° 0.2 mm 1 mps 676 mmHg 95%
    05:00 +7°C° 0 mm 1 mps 676 mmHg 95%
    06:00 +7°C° 0 mm 1 mps 676 mmHg 94%
    07:00 +8°C° 0 mm 1 mps 677 mmHg 94%
    08:00 +9°C° 0.1 mm 1 mps 677 mmHg 88%
    09:00 +11°C° 0.1 mm 1 mps 677 mmHg 83%
    10:00 +12°C° 0.1 mm 1 mps 677 mmHg 78%
    11:00 +14°C° 0.1 mm 2 mps 677 mmHg 70%
    12:00 +15°C° 0.1 mm 2 mps 677 mmHg 62%
    13:00 +16°C° 0.1 mm 2 mps 677 mmHg 55%
    14:00 +16°C° 0 mm 1 mps 677 mmHg 55%
    15:00 +16°C° 0 mm 1 mps 677 mmHg 56%
    16:00 +16°C° 0 mm 1 mps 677 mmHg 57%
    17:00 +14°C° 0 mm 1 mps 676 mmHg 65%
    18:00 +13°C° 0 mm 1 mps 676 mmHg 73%
    19:00 +10°C° 0 mm 0 mps 676 mmHg 81%
    20:00 +11°C° 0 mm 1 mps 676 mmHg 80%
    21:00 +11°C° 0 mm 1 mps 676 mmHg 79%
    22:00 +11°C° 0 mm 1 mps 676 mmHg 78%
    23:00 +11°C° 0 mm 1 mps 676 mmHg 75%
    Show more